Regional Weather Roundup
Issued by NWS Newport/Morehead, NC

Current Version | Previous Version | Text Only | Print | Product List | Glossary Off
Versions: 1 2 3 4 5 6 7 8 9 10 11 12 13 14 15 16 17 18 19 20 21 22 23 24 25 26 27 28 29 30 31 32 33 34 35 36 37 38 39 40 41 42 43 44 45 46 47 48 49 50
000 ASUS42 KMHX 031025 RWRMHX WEATHER ROUNDUP FOR EASTERN NORTH CAROLINA NATIONAL WEATHER SERVICE NEWPORT/MOREHEAD CITY NC 600 AM EDT TUE MAY 03 2016 NOTE: "FAIR" INDICATES FEW OR NO CLOUDS BELOW 12,000 FEET WITH NO SIGNIFICANT WEATHER AND/OR OBSTRUCTIONS TO VISIBILITY NCZ015>017-031-032-045>047-102-103-031100- NORTH COAST CITY SKY/WX TMP DP RH WIND PRES REMARKS EDENTON DRIZZLE 69 69 100 CALM 29.83F ELIZABETH CITY CLOUDY 68 67 96 S3 29.84F KITTY HAWK CLOUDY 72 69 90 SW5 29.83F MANTEO NOT AVBL $$ NCZ045>047-081-094-103-104-031100- CENTRAL COAST CITY SKY/WX TMP DP RH WIND PRES REMARKS FRISCO LGT RAIN 70 69 97 SW10 29.88S SWANQUARTER NOT AVBL $$ NCZ095-097-098-100-101-031100- SOUTHERN COAST CITY SKY/WX TMP DP RH WIND PRES REMARKS BEAUFORT CLOUDY 70 69 97 SW12 29.86F CEDAR ISLAND NOT AVBL JACKSONVILLE CLOUDY 72 64 76 S10G18 29.83F PINEY ISLAND NOT AVBL WILMINGTON CLOUDY 72 68 87 SW9 29.85S $$ NCZ011>013-027>030-043-044-078>080-089-090>093-098-031100- COASTAL PLAIN CITY SKY/WX TMP DP RH WIND PRES REMARKS AHOSKIE HVY RAIN 64 64 97 CALM 29.85R CLINTON HVY RAIN 65 65 99 SW3 29.86F ELIZABETHTOWN RAIN 66 66 100 CALM 29.88F GOLDSBORO RAIN 66 66 100 SW10 29.83R FOG GREENVILLE RAIN 68 68 100 SW7 29.85F HAVELOCK CLOUDY 72 67 84 S13 29.85F KENANSVILLE LGT RAIN 65 64 97 SW10 29.90R KINSTON HVY RAIN 67 66 94 SW9G16 29.86R NEW BERN MOCLDY 71 66 84 S12 29.84F RICHLANDS HVY RAIN 70 70 100 S13G18 29.83F FOG ROCKY MOUNT LGT RAIN 66 65 96 NW6 29.85S WASHINGTON CLOUDY 69 68 96 CALM 29.81F WHITEVILLE HVY RAIN 65 63 93 SW3 29.88R VSB 1 $$ AMZ130-135-150-152-154-156-158-170-250-252-270-ANZ085-086-088-633-658-670-031100- MARINE OBSERVATIONS STATION/POSITION TIME TEMP WIND PRES WAVE SWELL AIR SEA DIR/SP/G HT/PER HT/PER (UTC) (F) (DEG/KT/KT) (MB) (FT/S) (FT/S) CHESAPEAKE LIGHT 1000 66 190/ 16/ 16 1010.2 64 E VA BEACH 0950 58 54 240/ 8/ 8 1010.4 3/10 3/10 DUCK 1000 70 66 230/ 7/ 8 1009.9 2 E DUCK 0911 57 N/A 3/10 2/11 OREGON INLET 1000 71 72 210/ 11/ 15 1010.5 13E OREGON INLT 1000 61 N/A 4/ 5 2/10 HATTERAS CG 1000 71 70 210/ 11/ 14 1011.1 DIAMOND BUOY 0950 75 73 220/ 17/ 19 1011.4 5/ 4 2/10 CAPE LOOKOUT 1000 71 210/ 10/ 12 1011.0 BEAUFORT LAB 1000 70 67 210/ 6/ 9 1010.1 30 SE NEW RVR IN 0925 70 N/A 6/ 5 2/11 27 SE WRIGHTSVLE 1008 74 72 200/ 17/ 23 1010.3 5 SE WRIGHTSVLE 0908 71 69 210/ 16/ 19 1011.6 225 S CAPE HAT 0950 74 74 160/ 17/ 21 1015.4 4/ 4 2/10 41 SE CHARLESTON 0950 74 75 180/ 14/ 16 1011.3 5/ 5 2/11 $$

USA.gov is the U.S. government's official web portal to all federal, state and local government web resources and services.